{"data":{"norad_id":54123,"intl_designator":"2022-138L","name":"ONEWEB-0505","alt_names":[],"object_type":"PAYLOAD","status":"ACTIVE","operator":null,"country":"UK","launch_date":"2022-10-22","launch_site_code":"SRILR","launch_vehicle":null,"mission":null,"orbit_class":"UNKNOWN","rcs_meters":null,"size_class":null,"mass_kg":null,"dimensions":null,"purposes":["comms"],"wikipedia_slug":null,"has_3d_model":false,"image_url":null,"decayed_at":null,"tle_current":{"epoch":"2026-05-25T03:39:46.776672Z","epoch_age_seconds":62193,"freshness":"FRESH","line1":"1 54123U 22138L   26145.15262473 -.00000004  00000+0 -41638-4 0  9990","line2":"2 54123  87.9160 309.5571 0001670  78.8560 281.2760 13.19725064173775","mean_motion":13.19725064,"eccentricity":0.000167,"inclination_deg":87.916,"raan_deg":309.5571,"arg_perigee_deg":78.856,"mean_anomaly_deg":281.276,"bstar":-4.1638e-5,"rev_number":17377,"period_min":109.11363580801,"perigee_km":1184.5071349365,"apogee_km":1187.0334799772,"semimajor_km":7563.9073074569,"source":"CELESTRAK","updated_at":"2026-05-25T13:38:22.586403Z"}}}